TimeCDT,TemperatureF,Dew PointF,Humidity,Sea Level PressureIn,VisibilityMPH,Wind Direction,Wind SpeedMPH,Gust SpeedMPH,PrecipitationIn,Events,Conditions,WindDirDegrees,DateUTC
12:53 AM,71.1,51.1,49,29.99,10.0,East,3.5,-,N/A,,Scattered Clouds,100,2013-07-04 05:53:00
1:53 AM,70.0,51.1,51,29.98,10.0,Calm,Calm,-,N/A,,Scattered Clouds,0,2013-07-04 06:53:00
2:53 AM,63.0,55.0,75,29.98,10.0,Calm,Calm,-,N/A,,Scattered Clouds,0,2013-07-04 07:53:00
3:53 AM,62.1,55.9,80,29.97,10.0,Calm,Calm,-,N/A,,Scattered Clouds,0,2013-07-04 08:53:00
4:53 AM,62.1,55.0,78,29.97,10.0,ESE,5.8,-,N/A,,Scattered Clouds,120,2013-07-04 09:53:00
5:53 AM,63.0,55.0,75,29.99,10.0,ESE,3.5,-,N/A,,Scattered Clouds,110,2013-07-04 10:53:00
6:53 AM,63.0,55.9,78,30.00,10.0,East,3.5,-,N/A,,Partly Cloudy,100,2013-07-04 11:53:00
7:53 AM,68.0,57.9,70,30.01,10.0,ESE,3.5,-,N/A,,Partly Cloudy,110,2013-07-04 12:53:00
8:53 AM,75.0,59.0,57,30.02,10.0,South,10.4,-,N/A,,Partly Cloudy,180,2013-07-04 13:53:00
9:53 AM,80.1,60.1,50,30.01,10.0,South,12.7,-,N/A,,Partly Cloudy,180,2013-07-04 14:53:00
10:53 AM,82.0,60.1,47,30.01,10.0,South,11.5,19.6,N/A,,Clear,190,2013-07-04 15:53:00
11:53 AM,84.9,61.0,44,30.00,10.0,SSW,10.4,-,N/A,,Scattered Clouds,210,2013-07-04 16:53:00
12:53 PM,86.0,60.1,41,29.99,10.0,SSW,6.9,-,N/A,,Scattered Clouds,210,2013-07-04 17:53:00
1:53 PM,88.0,55.9,34,29.96,10.0,SW,3.5,-,N/A,,Mostly Cloudy,220,2013-07-04 18:53:00
2:53 PM,89.1,57.0,34,29.94,10.0,SW,9.2,-,N/A,,Scattered Clouds,230,2013-07-04 19:53:00
3:53 PM,89.1,55.9,32,29.93,10.0,SW,8.1,-,N/A,,Scattered Clouds,230,2013-07-04 20:53:00
4:53 PM,89.1,57.0,34,29.91,10.0,South,9.2,-,N/A,,Scattered Clouds,170,2013-07-04 21:53:00
5:53 PM,86.0,62.1,44,29.90,10.0,ESE,11.5,-,N/A,,Scattered Clouds,110,2013-07-04 22:53:00
6:18 PM,80.1,60.1,50,29.94,10.0,SSE,25.3,33.4,N/A,Thunderstorm,Thunderstorm,150,2013-07-04 23:18:00
6:50 PM,80.6,55.4,42,29.93,10.0,South,15.0,-,N/A,,Mostly Cloudy,170,2013-07-04 23:50:00
6:53 PM,77.0,57.0,50,29.91,10.0,SSE,15.0,-,N/A,,Mostly Cloudy,160,2013-07-04 23:53:00
7:02 PM,73.0,57.9,59,29.93,10.0,SSE,5.8,-,N/A,Thunderstorm,Thunderstorm,160,2013-07-05 00:02:00
7:28 PM,79.0,60.1,52,29.94,10.0,SSE,5.8,-,N/A,,Mostly Cloudy,160,2013-07-05 00:28:00
7:53 PM,79.0,60.1,52,29.92,10.0,SSE,9.2,-,N/A,,Scattered Clouds,160,2013-07-05 00:53:00
8:53 PM,77.0,63.0,62,29.92,10.0,SSE,6.9,-,N/A,,Scattered Clouds,150,2013-07-05 01:53:00
9:53 PM,73.9,63.0,68,29.93,10.0,SE,5.8,-,N/A,,Partly Cloudy,140,2013-07-05 02:53:00
10:53 PM,75.0,62.1,64,29.94,7.0,SSE,8.1,-,N/A,,Partly Cloudy,150,2013-07-05 03:53:00
11:53 PM,70.0,62.1,76,29.94,7.0,SE,5.8,-,N/A,,Partly Cloudy,140,2013-07-05 04:53:00